Regional Weather Roundup
Issued by NWS

Home | Current Version | Previous Version | Graphics & Text | Print | Product List | Glossary On
Versions: 1 2 3 4 5 6 7 8 9 10 11 12 13 14 15 16 17 18 19 20 21 22 23 24 25 26 27 28 29 30 31 32 33 34 35 36 37 38 39 40 41 42 43 44 45 46 47 48 49 50
000
ASUS45 KPSR 290600
RWRAZ

PRELIMINARY ARIZONA REGIONAL HOURLY WEATHER ROUNDUP
NATIONAL WEATHER SERVICE PHOENIX AZ
1100 PM MST SUN DEC 28 2014

NOTE: FAIR INDICATES FEW OR NO CLOUDS BELOW 12,000 FEET WITH NO
SIGNIFICANT WEATHER AND/OR OBSTRUCTIONS TO VISIBILITY.

AZZ001>003-036-290700-
NORTHWEST ARIZONA

CITY           SKY/WX    TMP DP  RH WIND       PRES   REMARKS
KINGMAN        CLEAR     23  12  62 CALM      30.11S
6HR MIN TEMP:  23; 6HR MAX TEMP:  44;

$$

AZZ004>008-015-016-018-290700-
NORTH CENTRAL ARIZONA

CITY           SKY/WX    TMP DP  RH WIND       PRES   REMARKS
GRAND CANYON   PTCLDY    10   5  80 NE3       30.09F
6HR MIN TEMP:   9; 6HR MAX TEMP:  35;

PRESCOTT       CLEAR     23  10  57 S7        30.12F WCI  15
6HR MIN TEMP:  22; 6HR MAX TEMP:  43;

FLAGSTAFF      NOT AVBL
PAYSON         CLEAR     28  12  50 CALM      30.14F
PAGE           CLEAR     29  11  47 CALM      30.04F HAZE
6HR MIN TEMP:  28; 6HR MAX TEMP:  38;

$$

AZZ009>014-017-290700-
NORTHEAST ARIZONA

CITY           SKY/WX    TMP DP  RH WIND       PRES   REMARKS
WINSLOW        NOT AVBL
SAINT JOHNS    CLEAR     23  10  57 SE5       30.06F WCI  17
6HR MIN TEMP:  21; 6HR MAX TEMP:  40;

WINDOW ROCK    CLEAR     15   3  59 CALM      30.05F
6HR MIN TEMP:  13; 6HR MAX TEMP:  31;

$$

AZZ023-290700-
GREATER PHOENIX AREA

CITY           SKY/WX    TMP DP  RH WIND       PRES   REMARKS
PHOENIX        CLEAR     46  25  43 CALM      30.14S
6HR MIN TEMP:  45; 6HR MAX TEMP:  58;

LUKE AFB       CLEAR     39  26  58 N7        30.14F WCI  34
6HR MIN TEMP:  39; 6HR MAX TEMP:  56;

DEER VALLEY    CLEAR     42  21  43 NE7       30.14S
6HR MIN TEMP:  41; 6HR MAX TEMP:  54;

SCOTTSDALE     CLEAR     40  25  55 CALM      30.15F
6HR MIN TEMP:  40; 6HR MAX TEMP:  55;

MESA-GATEWAY   CLEAR     36  25  64 SE5       30.17S WCI  32
$$

AZZ027-028-290700-
SOUTHWEST MARICOPA COUNTY AND PINAL COUNTY

CITY           SKY/WX    TMP DP  RH WIND       PRES   REMARKS
CASA GRANDE    CLEAR     34  21  60 CALM      30.16S
6HR MIN TEMP:  34; 6HR MAX TEMP:  54;

$$

AZZ503-504-507>509-290700-
SOUTHEAST ARIZONA

CITY           SKY/WX    TMP DP  RH WIND       PRES   REMARKS
TUCSON         CLEAR     38  28  67 S6        30.16F WCI  33
6HR MIN TEMP:  38; 6HR MAX TEMP:  53;

DAVIS-MONTHAN  CLEAR     37  26  65 S6        30.14S WCI  32
6HR MIN TEMP:  37; 6HR MAX TEMP:  51;

NOGALES        CLEAR     33  16  49 E5        30.14S WCI  29
6HR MIN TEMP:  33; 6HR MAX TEMP:  54;

SIERRA VISTA   CLEAR     33  16  49 S3        30.14S
6HR MIN TEMP:  33; 6HR MAX TEMP:  51;

SAFFORD        CLEAR     33  22  63 CALM      30.13S
6HR MIN TEMP:  33; 6HR MAX TEMP:  48;

$$

AZZ020-021-025-026-031-290700-
SOUTHWEST ARIZONA

CITY           SKY/WX    TMP DP  RH WIND       PRES   REMARKS
YUMA           NOT AVBL
$$

CAZ031-033-041-043-047-048-061-290700-
SOUTHERN CALIFORNIA

CITY           SKY/WX    TMP DP  RH WIND       PRES   REMARKS
DOWNTOWN L.A.  CLEAR     48  39  71 CALM      30.19F
6HR MIN TEMP:  48; 6HR MAX TEMP:  60;

L.A. AIRPORT   CLEAR     50  42  74 E5        30.20S
6HR MIN TEMP:  50; 6HR MAX TEMP:  57;

SAN DIEGO      PTCLDY    53  38  56 CALM      30.21F
6HR MIN TEMP:  53; 6HR MAX TEMP:  60;

BURBANK        CLEAR     46  31  55 CALM      30.19S
6HR MIN TEMP:  46; 6HR MAX TEMP:  59;

ONTARIO        PTCLDY    47  30  51 NE5       30.19S
6HR MIN TEMP:  46; 6HR MAX TEMP:  59;

RIVERSIDE      CLEAR     44  31  60 SE3       30.20S
6HR MIN TEMP:  44; 6HR MAX TEMP:  60;

PALM SPRINGS   CLEAR     45  22  40 NW5       30.19S
6HR MIN TEMP:  44; 6HR MAX TEMP:  59;

EL CENTRO NAS  CLEAR     43  16  33 SW5       30.17F
6HR MIN TEMP:  40; 6HR MAX TEMP:  59;

IMPERIAL       CLEAR     40  23  50 SW3       30.17S
6HR MIN TEMP:  39; 6HR MAX TEMP:  59;

BLYTHE         CLEAR     39  19  44 NW6       30.17S WCI  35
6HR MIN TEMP:  38; 6HR MAX TEMP:  55;

$$

NVZ020-UTZ003-290700-
SOUTHERN NEVADA-UTAH

CITY           SKY/WX    TMP DP  RH WIND       PRES   REMARKS
LAS VEGAS      NOT AVBL
SALT LAKE CITY CLOUDY    28  25  88 E5        30.04F WCI  23
6HR MIN TEMP:  27; 6HR MAX TEMP:  30; 6HR PCP:  0.02;

$$

NMZ009-TXZ055-290700-
NEW MEXICO-WEST TEXAS

CITY           SKY/WX    TMP DP  RH WIND       PRES   REMARKS
ALBUQUERQUE    PTCLDY    24  12  60 SE7       30.07S WCI  16
6HR MIN TEMP:  24; 6HR MAX TEMP:  33;

EL PASO        MOCLDY    41  29  62 S12       30.10F
6HR MIN TEMP:  40; 6HR MAX TEMP:  46;

$$


........................KEY........................
SKY/WX - SKY CONDITION/WEATHER
TMP    - TEMPERATURE IN FAHRENHEIT
DP     - DEW POINT IN FAHRENHEIT
RH     - RELATIVE HUMIDITY IN PERCENT
WIND   - DIRECTION AND SPEED IN MILES PER HOUR (MPH)
VRB    - VARIABLE WIND DIRECTION
PRES   - MEAN SEA LEVEL PRESSURE IN INCHES OF MERCURY
         F - FALLING PRESSURE   R - RISING PRESSURE
         S - STEADY PRESSURE
VSB    - VISIBILITY IN MILES
HX     - HEAT INDEX IN FAHRENHEIT
WCI    - WIND CHILL INDEX IN FAHRENHEIT
TC     - TEMPERATURE IN CELSIUS WHICH IS ALSO KNOWN AS
         TEMPERATURE IN CENTIGRADE
AFB    - AIR FORCE BASE
         LUKE AFB IS LUKE AIR FORCE BASE
         DAVIS-MONTHAN IS DAVIS-MONTHAN AIR FORCE BASE
NAS    - NAVAL AIR STATION
         EL CENTRO NAS IS EL CENTRO NAVAL AIR STATION
N/A    - NOT AVAILABLE


USA.gov is the U.S. government's official web portal to all federal, state and local government web resources and services.